TG9ADI-20 Weather Reports


time (UTC)temp
F
wind
direction
speed
knots
gust
knots
rain 1hr
in
rain 24hr
in
rain mn
in
humidity
%
barometer
mb
20260504081815 63 20 9.6 0.0 0.00 0.00 0.00 93 1015.0
20260504080815 63 20 9.6 0.0 0.00 0.00 0.00 93 1015.0
20260504045803 67 20 9.6 0.0 0.00 0.00 0.00 77 1018.0
20260504044802 67 20 9.6 0.0 0.00 0.00 0.00 77 1018.0
20260504043802 60 20 9.6 0.0 0.00 0.00 0.00 10 1018.0
20260504042801 60 20 9.6 0.0 0.00 0.00 0.00 91 1019.0
20260504041801 66 20 9.6 0.0 0.00 0.00 0.00 79 1019.0
20260504040800 67 20 9.6 0.0 0.00 0.00 0.00 81 1017.0
20260504035759 60 76 0.9 4.3 0.00 0.00 0.00 10 1017.0
20260504034759 61 30 0.9 4.3 0.00 0.00 0.00 10 1017.0
20260504033758 61 337 1.7 3.5 0.00 0.00 0.00 10 1017.0
20260504032757 61 66 0.9 9.6 0.00 0.00 0.00 10 1016.0
20260504031757 61 20 7.0 0.0 0.00 0.00 0.00 92 1016.0
20260504030756 62 20 7.0 0.0 0.00 0.00 0.00 91 1016.0
20260504025756 64 20 7.8 0.0 0.00 0.00 0.00 87 1016.0
20260504024755 61 30 4.3 0.0 0.03 0.00 0.00 92 1016.0
20260504023754 61 30 4.3 0.0 0.07 0.00 0.00 91 1016.0
20260504022754 65 30 5.2 0.0 0.00 0.00 0.00 85 1015.0
20260504021753 60 72 4.3 13.0 0.00 0.00 0.00 10 1015.0
20260504020752 63 350 7.0 0.0 0.00 0.00 0.00 90 1015.0
20260504015752 67 50 17.4 0.0 0.00 0.00 0.00 68 1016.0
20260504014751 61 95 7.0 30.4 0.00 0.00 0.00 96 1016.0
20260504013750 64 84 26.9 40.8 0.00 0.00 0.00 95 1015.0
20260504012750 68 350 7.0 0.0 0.00 0.00 0.00 94 1015.0
20260504011749 70 350 7.0 0.0 0.00 0.00 0.00 93 1015.0
20260504010748 70 96 0.9 7.0 0.01 0.00 0.00 10 1015.0
20260504005748 68 292 2.6 9.6 0.01 0.00 0.00 90 1015.0
20260504004747 67 0 2.6 0.0 0.00 0.00 0.00 80 1014.0
20260504003747 69 0 2.6 0.0 0.01 0.00 0.00 80 1014.0
20260504002746 69 0 2.6 0.0 0.00 0.00 0.00 92 1013.0
20260504001745 69 0 2.6 0.0 0.00 0.00 0.00 92 1013.0
20260504000745 70 329 2.6 9.6 0.00 0.00 0.00 91 1013.0
20260503235744 71 46 2.6 8.7 0.00 0.00 0.00 90 1013.0
20260503234743 72 83 3.5 9.6 0.00 0.00 0.00 88 1013.0
20260503233743 72 79 2.6 8.7 0.00 0.00 0.00 87 1013.0
20260503232742 75 61 3.5 7.0 0.00 0.00 0.00 81 1013.0
20260503231741 71 28 3.5 7.0 0.00 0.00 0.00 89 1013.0
20260503230741 72 200 3.5 0.0 0.00 0.00 0.00 88 1013.0
20260503225740 73 200 3.5 0.0 0.00 0.00 0.00 81 1012.0
20260503224739 74 200 3.5 0.0 0.00 0.00 0.00 83 1012.0
20260503223739 74 200 3.5 0.0 0.00 0.00 0.00 83 1012.0
20260503222738 73 220 9.6 0.0 0.00 0.00 0.00 79 1012.0
20260503221738 73 220 9.6 0.0 0.00 0.00 0.00 79 1012.0
20260503220737 72 220 9.6 0.0 0.00 0.00 0.00 84 1012.0
20260503215736 73 220 9.6 0.0 0.00 0.00 0.00 82 1012.0
20260503214736 72 220 9.6 0.0 0.00 0.00 0.00 82 1012.0
20260503213735 75 220 9.6 0.0 0.00 0.00 0.00 74 1012.0
20260503212734 71 59 0.9 4.3 0.04 0.00 0.00 10 1013.0
20260503211734 71 107 7.0 13.0 0.07 0.00 0.00 10 1013.0
20260503210733 71 107 7.0 13.0 0.07 0.00 0.00 10 1013.0
20260503205733 73 99 2.6 7.0 0.05 0.00 0.00 10 1012.0
20260503204732 73 98 2.6 7.0 0.04 0.00 0.00 10 1012.0
20260503203731 73 69 2.6 4.3 0.04 0.00 0.00 10 1012.0
20260503202731 73 80 0.9 7.0 0.02 0.00 0.00 10 1013.0
20260503201730 73 51 3.5 7.0 0.00 0.00 0.00 10 1013.0
20260503200729 73 46 3.5 14.8 0.01 0.00 0.00 10 1013.0
20260503195729 74 20 11.3 0.0 0.00 0.00 0.00 81 1012.0
20260503194728 74 20 11.3 0.0 0.00 0.00 0.00 81 1012.0
20260503193727 76 20 11.3 0.0 0.00 0.00 0.00 72 1012.0
20260503192727 78 20 11.3 0.0 0.00 0.00 0.00 50 1013.0
20260503191726 78 20 11.3 0.0 0.00 0.00 0.00 50 1013.0
20260503190726 78 20 11.3 0.0 0.00 0.00 0.00 49 1013.0
20260503185725 82 40 11.3 0.0 0.00 0.00 0.00 47 1013.0
20260503184724 74 59 4.3 9.6 0.00 0.00 0.00 10 1013.0
20260503183724 79 40 11.3 0.0 0.00 0.00 0.00 71 1013.0
20260503182723 80 40 11.3 0.0 0.00 0.00 0.00 49 1014.0
20260503181722 80 40 11.3 0.0 0.00 0.00 0.00 64 1014.0
20260503180722 82 40 11.3 0.0 0.00 0.00 0.00 47 1014.0
20260503175721 79 40 7.8 0.0 0.00 0.00 0.00 50 1014.0
20260503174721 80 40 7.8 0.0 0.00 0.00 0.00 50 1014.0
20260503173720 79 40 7.8 0.0 0.00 0.00 0.00 66 1015.0
20260503172719 79 40 7.8 0.0 0.00 0.00 0.00 66 1015.0
20260503171719 80 40 7.8 0.0 0.00 0.00 0.00 59 1015.0
20260503170718 78 60 3.5 0.0 0.00 0.00 0.00 53 1015.0
20260503150710 75 30 5.2 0.0 0.00 0.00 0.00 57 1016.0
20260503130703 64 360 9.6 0.0 0.00 0.00 0.00 89 1015.0
20260503110655 60 20 13.0 0.0 0.00 0.00 0.00 95 1015.0